TimeEST,TemperatureF,Dew PointF,Humidity,Sea Level PressureIn,VisibilityMPH,Wind Direction,Wind SpeedMPH,Gust SpeedMPH,PrecipitationIn,Events,Conditions,WindDirDegrees,DateUTC
12:51 AM,24.1,21.9,91,30.23,10.0,Calm,Calm,-,N/A,,Overcast,0,2013-02-26 05:51:00
1:51 AM,21.9,19.9,92,30.23,1.2,Calm,Calm,-,N/A,,Overcast,0,2013-02-26 06:51:00
1:59 AM,23.0,21.2,93,30.16,0.5,Calm,Calm,-,N/A,Fog,Light Freezing Fog,0,2013-02-26 06:59:00
2:06 AM,23.0,21.2,93,30.16,2.0,Calm,Calm,-,N/A,,Overcast,0,2013-02-26 07:06:00
2:13 AM,21.2,19.4,93,30.17,8.0,Calm,Calm,-,N/A,,Overcast,0,2013-02-26 07:13:00
2:51 AM,19.0,18.0,96,30.25,1.0,NE,3.5,-,N/A,,Mostly Cloudy,40,2013-02-26 07:51:00
2:54 AM,19.4,17.6,93,30.18,0.8,Calm,Calm,-,N/A,,Mostly Cloudy,0,2013-02-26 07:54:00
3:02 AM,21.2,19.4,93,30.18,3.0,Calm,Calm,-,N/A,,Mostly Cloudy,0,2013-02-26 08:02:00
3:12 AM,21.2,19.4,93,30.18,0.8,Calm,Calm,-,N/A,,Mist,0,2013-02-26 08:12:00
3:39 AM,17.6,17.6,100,30.17,0.2,Calm,Calm,-,N/A,Fog,Light Freezing Fog,0,2013-02-26 08:39:00
3:51 AM,16.0,15.1,96,30.25,0.2,Calm,Calm,-,N/A,Fog,Light Freezing Fog,0,2013-02-26 08:51:00
4:06 AM,17.6,15.8,93,30.19,0.2,Calm,Calm,-,N/A,Fog,Light Freezing Fog,0,2013-02-26 09:06:00
4:17 AM,15.8,15.8,100,30.19,1.0,Calm,Calm,-,N/A,,Mist,0,2013-02-26 09:17:00
4:20 AM,15.8,14.0,93,30.19,4.0,Calm,Calm,-,N/A,,Overcast,0,2013-02-26 09:20:00
4:39 AM,15.8,14.0,93,30.19,1.8,Calm,Calm,-,N/A,,Overcast,0,2013-02-26 09:39:00
4:44 AM,15.8,12.2,86,30.19,0.2,Calm,Calm,-,N/A,Fog,Light Freezing Fog,0,2013-02-26 09:44:00
4:51 AM,15.1,12.9,91,30.27,0.2,Calm,Calm,-,N/A,Fog,Light Freezing Fog,0,2013-02-26 09:51:00
5:51 AM,12.9,10.9,92,30.28,0.2,Calm,Calm,-,N/A,Fog,Light Freezing Fog,0,2013-02-26 10:51:00
5:59 AM,14.0,12.2,93,30.20,1.0,Calm,Calm,-,N/A,,Overcast,0,2013-02-26 10:59:00
6:06 AM,12.2,10.4,92,30.20,0.2,Calm,Calm,-,N/A,Fog,Light Freezing Fog,0,2013-02-26 11:06:00
6:20 AM,14.0,12.2,93,30.20,0.2,Calm,Calm,-,N/A,Fog,Light Freezing Fog,0,2013-02-26 11:20:00
6:34 AM,12.2,12.2,100,30.20,1.0,Calm,Calm,-,N/A,,Mist,0,2013-02-26 11:34:00
6:43 AM,12.2,10.4,92,30.20,0.2,Calm,Calm,-,N/A,Fog,Light Freezing Fog,0,2013-02-26 11:43:00
6:51 AM,14.0,12.0,92,30.29,0.2,Calm,Calm,-,N/A,Fog,Light Freezing Fog,0,2013-02-26 11:51:00
7:51 AM,16.0,14.0,92,30.28,0.2,Calm,Calm,-,N/A,Fog,Light Freezing Fog,0,2013-02-26 12:51:00
8:19 AM,17.6,17.6,100,30.20,1.0,Calm,Calm,-,N/A,,Mist,0,2013-02-26 13:19:00
8:23 AM,17.6,17.6,100,30.20,3.0,Calm,Calm,-,N/A,,Mostly Cloudy,0,2013-02-26 13:23:00
8:30 AM,19.4,17.6,93,30.21,5.0,Calm,Calm,-,N/A,,Scattered Clouds,0,2013-02-26 13:30:00
8:51 AM,23.0,23.0,100,30.29,8.0,Calm,Calm,-,N/A,,Clear,0,2013-02-26 13:51:00
9:51 AM,28.9,25.0,85,30.26,10.0,NE,4.6,-,0.00,,Clear,50,2013-02-26 14:51:00
10:51 AM,32.0,25.0,75,30.25,10.0,Calm,Calm,-,N/A,,Clear,0,2013-02-26 15:51:00
11:51 AM,35.1,23.0,61,30.24,10.0,Calm,Calm,-,N/A,,Mostly Cloudy,0,2013-02-26 16:51:00
12:51 PM,35.1,23.0,61,30.23,10.0,South,4.6,-,N/A,,Overcast,170,2013-02-26 17:51:00
1:51 PM,35.1,23.0,61,30.22,10.0,South,5.8,-,N/A,,Overcast,170,2013-02-26 18:51:00
2:51 PM,36.0,23.0,59,30.17,10.0,SSE,6.9,-,N/A,,Overcast,150,2013-02-26 19:51:00
3:51 PM,36.0,23.0,59,30.17,10.0,ESE,8.1,-,N/A,,Overcast,120,2013-02-26 20:51:00
4:51 PM,36.0,23.0,59,30.16,10.0,Variable,4.6,-,N/A,,Overcast,0,2013-02-26 21:51:00
5:51 PM,35.1,24.1,64,30.17,10.0,ESE,6.9,-,N/A,,Overcast,120,2013-02-26 22:51:00
6:51 PM,33.1,23.0,66,30.14,10.0,ESE,8.1,18.4,N/A,,Clear,120,2013-02-26 23:51:00
7:51 PM,33.1,24.1,70,30.15,10.0,SE,6.9,-,N/A,,Clear,140,2013-02-27 00:51:00
8:51 PM,32.0,23.0,69,30.11,10.0,ESE,4.6,-,N/A,,Partly Cloudy,110,2013-02-27 01:51:00
9:51 PM,32.0,23.0,69,30.08,10.0,SE,5.8,-,N/A,,Clear,140,2013-02-27 02:51:00
10:51 PM,30.9,23.0,72,30.03,10.0,Calm,Calm,-,N/A,,Clear,0,2013-02-27 03:51:00
11:51 PM,30.9,23.0,72,30.00,10.0,ENE,3.5,-,N/A,,Clear,70,2013-02-27 04:51:00